• In Netherlands
  • List of Countries
  • For 7 days
  • Water Temperature
  • Satellite Maps
  • Weather Map
  • Weather Widgets
  • user-avatar
    Login

    Hourly Weather La Massana

    Today, 19 August, Saturday

    Time Temperature Precipitation Wind Pressure Humidity
    00:00 +12°C° 0.2 mm 2 mps 615 mmHg 92%
    01:00 +12°C° 0.1 mm 2 mps 615 mmHg 92%
    02:00 +12°C° 0.1 mm 2 mps 615 mmHg 93%
    03:00 +12°C° 0.1 mm 2 mps 615 mmHg 93%
    04:00 +12°C° 0 mm 2 mps 615 mmHg 92%
    05:00 +11°C° 0 mm 1 mps 615 mmHg 92%
    06:00 +11°C° 0 mm 1 mps 615 mmHg 92%
    07:00 +12°C° 0 mm 1 mps 616 mmHg 87%
    08:00 +13°C° 0 mm 1 mps 617 mmHg 82%
    09:00 +14°C° 0 mm 1 mps 617 mmHg 77%
    10:00 +15°C° 0 mm 2 mps 618 mmHg 71%
    11:00 +17°C° 0 mm 2 mps 618 mmHg 65%
    12:00 +18°C° 0 mm 2 mps 618 mmHg 59%
    13:00 +18°C° 0.1 mm 2 mps 618 mmHg 59%
    14:00 +18°C° 0.1 mm 2 mps 618 mmHg 59%
    15:00 +18°C° 0.1 mm 2 mps 618 mmHg 59%
    16:00 +17°C° 0.1 mm 2 mps 617 mmHg 63%
    17:00 +16°C° 0.1 mm 2 mps 617 mmHg 67%
    18:00 +15°C° 0.1 mm 2 mps 617 mmHg 70%
    19:00 +13°C° 0 mm 2 mps 617 mmHg 75%
    20:00 +12°C° 0 mm 2 mps 617 mmHg 79%
    21:00 +10°C° 0 mm 2 mps 616 mmHg 84%
    22:00 +10°C° 0 mm 2 mps 616 mmHg 84%
    23:00 +9°C° 0 mm 2 mps 616 mmHg 84%

    Tomorrow, 20 August, Sunday

    Time Temperature Precipitation Wind Pressure Humidity
    00:00 +9°C° 0 mm 2 mps 616 mmHg 85%
    01:00 +8°C° 0 mm 2 mps 616 mmHg 85%
    02:00 +8°C° 0 mm 2 mps 616 mmHg 84%
    03:00 +8°C° 0 mm 2 mps 615 mmHg 84%
    04:00 +8°C° 0 mm 2 mps 615 mmHg 82%
    05:00 +8°C° 0 mm 2 mps 616 mmHg 79%
    06:00 +8°C° 0 mm 2 mps 616 mmHg 77%
    07:00 +10°C° 0 mm 2 mps 617 mmHg 65%
    08:00 +14°C° 0 mm 2 mps 618 mmHg 53%
    09:00 +16°C° 0 mm 2 mps 619 mmHg 41%
    10:00 +18°C° 0 mm 2 mps 620 mmHg 38%
    11:00 +19°C° 0 mm 2 mps 620 mmHg 35%
    12:00 +21°C° 0 mm 2 mps 620 mmHg 32%
    13:00 +21°C° 0 mm 2 mps 620 mmHg 32%
    14:00 +21°C° 0 mm 2 mps 620 mmHg 33%
    15:00 +21°C° 0 mm 2 mps 619 mmHg 33%
    16:00 +19°C° 0 mm 2 mps 619 mmHg 39%
    17:00 +18°C° 0 mm 2 mps 618 mmHg 45%
    18:00 +16°C° 0 mm 2 mps 617 mmHg 51%
    19:00 +14°C° 0 mm 2 mps 617 mmHg 54%
    20:00 +13°C° 0 mm 2 mps 617 mmHg 57%
    21:00 +10°C° 0 mm 2 mps 616 mmHg 60%
    22:00 +10°C° 0 mm 2 mps 616 mmHg 59%
    23:00 +9°C° 0 mm 2 mps 616 mmHg 57%

    Day after tomorrow, 21 August, Monday

    Time Temperature Precipitation Wind Pressure Humidity
    00:00 +10°C° 0 mm 1 mps 616 mmHg 56%
    01:00 +10°C° 0 mm 1 mps 615 mmHg 55%
    02:00 +10°C° 0 mm 1 mps 615 mmHg 54%
    03:00 +10°C° 0 mm 1 mps 615 mmHg 53%
    04:00 +10°C° 0 mm 1 mps 615 mmHg 53%
    05:00 +10°C° 0 mm 1 mps 615 mmHg 53%
    06:00 +11°C° 0 mm 1 mps 615 mmHg 52%
    07:00 +14°C° 0 mm 1 mps 617 mmHg 46%
    08:00 +18°C° 0 mm 1 mps 618 mmHg 40%
    09:00 +21°C° 0 mm 1 mps 619 mmHg 34%
    10:00 +22°C° 0 mm 1 mps 620 mmHg 32%
    11:00 +23°C° 0 mm 1 mps 620 mmHg 31%
    12:00 +25°C° 0 mm 1 mps 620 mmHg 29%
    13:00 +25°C° 0 mm 1 mps 620 mmHg 30%
    14:00 +25°C° 0 mm 2 mps 619 mmHg 30%
    15:00 +25°C° 0 mm 2 mps 619 mmHg 31%
    16:00 +23°C° 0 mm 1 mps 618 mmHg 39%
    17:00 +21°C° 0 mm 1 mps 617 mmHg 46%
    18:00 +19°C° 0 mm 1 mps 617 mmHg 54%
    19:00 +18°C° 0 mm 1 mps 616 mmHg 61%
    20:00 +15°C° 0 mm 1 mps 616 mmHg 67%
    21:00 +13°C° 0 mm 1 mps 615 mmHg 74%
    22:00 +13°C° 0 mm 1 mps 615 mmHg 75%
    23:00 +13°C° 0 mm 1 mps 615 mmHg 77%

    22 August, Tuesday

    Time Temperature Precipitation Wind Pressure Humidity
    00:00 +13°C° 0 mm 1 mps 615 mmHg 79%
    01:00 +12°C° 0 mm 1 mps 615 mmHg 79%
    02:00 +12°C° 0 mm 1 mps 614 mmHg 79%
    03:00 +12°C° 0 mm 1 mps 614 mmHg 80%
    04:00 +13°C° 0 mm 1 mps 614 mmHg 78%
    05:00 +13°C° 0 mm 1 mps 615 mmHg 77%
    06:00 +13°C° 0 mm 1 mps 615 mmHg 75%
    07:00 +16°C° 0 mm 1 mps 616 mmHg 64%
    08:00 +20°C° 0 mm 1 mps 617 mmHg 53%
    09:00 +23°C° 0 mm 2 mps 619 mmHg 42%
    10:00 +24°C° 0 mm 2 mps 619 mmHg 39%
    11:00 +26°C° 0 mm 2 mps 619 mmHg 36%
    12:00 +27°C° 0 mm 2 mps 619 mmHg 33%
    13:00 +26°C° 0.1 mm 2 mps 619 mmHg 36%
    14:00 +26°C° 0.1 mm 2 mps 618 mmHg 38%
    15:00 +25°C° 0.1 mm 2 mps 618 mmHg 41%
    16:00 +24°C° 0.2 mm 2 mps 617 mmHg 46%
    17:00 +22°C° 0.2 mm 1 mps 617 mmHg 51%
    18:00 +21°C° 0.2 mm 1 mps 616 mmHg 56%
    19:00 +19°C° 0.3 mm 1 mps 616 mmHg 61%
    20:00 +18°C° 0.3 mm 1 mps 616 mmHg 66%
    21:00 +15°C° 0.3 mm 1 mps 616 mmHg 71%
    22:00 +15°C° 0.1 mm 1 mps 615 mmHg 73%
    23:00 +14°C° 0.1 mm 1 mps 615 mmHg 74%

    23 August, Wednesday

    Time Temperature Precipitation Wind Pressure Humidity
    00:00 +14°C° 0.1 mm 1 mps 615 mmHg 75%
    01:00 +13°C° 0.1 mm 1 mps 615 mmHg 77%
    02:00 +13°C° 0.1 mm 1 mps 615 mmHg 78%
    03:00 +13°C° 0.1 mm 1 mps 615 mmHg 79%
    04:00 +13°C° 0.1 mm 1 mps 615 mmHg 79%
    05:00 +13°C° 0.1 mm 1 mps 615 mmHg 78%
    06:00 +12°C° 0.1 mm 0 mps 615 mmHg 77%
    07:00 +16°C° 0.1 mm 1 mps 616 mmHg 69%
    08:00 +19°C° 0.1 mm 1 mps 617 mmHg 61%
    09:00 +20°C° 0.1 mm 2 mps 618 mmHg 53%
    10:00 +21°C° 0.3 mm 2 mps 619 mmHg 50%
    11:00 +23°C° 0.3 mm 2 mps 619 mmHg 47%
    12:00 +24°C° 0.3 mm 2 mps 619 mmHg 43%
    13:00 +24°C° 0.4 mm 2 mps 619 mmHg 44%
    14:00 +24°C° 0.4 mm 2 mps 618 mmHg 45%
    15:00 +24°C° 0.4 mm 2 mps 618 mmHg 46%
    16:00 +21°C° 0.7 mm 2 mps 617 mmHg 53%
    17:00 +20°C° 0.7 mm 2 mps 617 mmHg 59%
    18:00 +19°C° 0.7 mm 1 mps 616 mmHg 65%
    19:00 +18°C° 0.4 mm 1 mps 616 mmHg 70%
    20:00 +15°C° 0.4 mm 1 mps 615 mmHg 74%
    21:00 +14°C° 0.4 mm 1 mps 615 mmHg 78%
    22:00 +14°C° 0.1 mm 1 mps 615 mmHg 78%
    23:00 +14°C° 0.1 mm 1 mps 615 mmHg 78%

    24 August, Thursday

    Time Temperature Precipitation Wind Pressure Humidity
    00:00 +13°C° 0.1 mm 1 mps 615 mmHg 79%
    01:00 +13°C° 0 mm 1 mps 614 mmHg 78%
    02:00 +13°C° 0 mm 1 mps 614 mmHg 77%
    03:00 +13°C° 0 mm 1 mps 614 mmHg 76%
    04:00 +13°C° 0 mm 1 mps 614 mmHg 76%
    05:00 +13°C° 0 mm 1 mps 614 mmHg 76%
    06:00 +13°C° 0 mm 1 mps 614 mmHg 76%
    07:00 +15°C° 0 mm 1 mps 615 mmHg 68%
    08:00 +17°C° 0 mm 2 mps 616 mmHg 59%
    09:00 +20°C° 0 mm 2 mps 617 mmHg 51%
    10:00 +21°C° 0.1 mm 2 mps 618 mmHg 49%
    11:00 +22°C° 0.1 mm 3 mps 618 mmHg 46%
    12:00 +24°C° 0.1 mm 3 mps 618 mmHg 43%
    13:00 +24°C° 0.2 mm 3 mps 618 mmHg 44%
    14:00 +24°C° 0.2 mm 3 mps 618 mmHg 44%
    15:00 +24°C° 0.2 mm 3 mps 617 mmHg 45%
    16:00 +21°C° 0.1 mm 2 mps 617 mmHg 50%
    17:00 +20°C° 0.1 mm 2 mps 616 mmHg 55%
    18:00 +19°C° 0.1 mm 1 mps 616 mmHg 60%
    19:00 +18°C° 0 mm 1 mps 615 mmHg 65%
    20:00 +15°C° 0 mm 1 mps 615 mmHg 69%
    21:00 +13°C° 0 mm 1 mps 614 mmHg 74%
    22:00 +13°C° 0 mm 1 mps 614 mmHg 72%
    23:00 +13°C° 0 mm 1 mps 614 mmHg 71%
    Show more